Temp
23 22 22 22 21 21 21 21 22 21 21 22 21 21 22 22 23 23 22 23 23 22 22 22 22 22 21 21 22 22 22 22 22 22 22 22 22 22 22 22 22 22 22 22 22 22 22 22 22 22 22 22 22 23 23 23 23 22 22 22 22 22 22 21 22 22 22 22 22 22 22 22 22 21 21 21 22 22 22 21 21 21 21 21 21
23 22 22 22 22 21 21 21 21 21 21 22 21 20 21 22 22 22 22 22 22 22 21 21 21 21 21 22 22 22 23 22 22 22 22 22 22 22 22 22 22 22 22 22 22 22 22 22 22 22 22 22 22 23 23 23 23 23 22 22 22 22 22 22 22 22 22 22 22 22 22 22 22 21 21 21 21 22 22 21 21 22 22 21 21
23 22 22 22 22 21 21 21 21 21 21 22 21 21 21 21 21 21 22 22 22 22 21 21 21 21 22 22 22 23 22 22 22 22 22 22 22 22 22 22 22 22 22 22 22 22 22 22 22 22 22 22 22 22 23 23 23 23 23 23 22 22 22 22 22 22 22 22 22 22 22 22 22 21 21 21 21 21 21 22 21 21 21 21 21
24 23 22 22 23 22 22 21 21 21 21 21 21 22 22 22 21 21 22 22 22 22 22 21 21 21 22 22 22 22 22 22 22 22 22 22 22 22 22 22 22 22 22 22 22 22 22 22 22 22 22 22 22 22 22 22 23 23 23 23 23 22 22 22 22 22 22 22 22 22 22 22 22 21 21 21 21 21 21 21 21 21 21 21 21
24 24 22 23 23 22 22 22 21 21 22 21 21 22 22 22 22 21 21 21 22 21 21 21 21 21 21 22 22 22 22 22 22 22 22 22 22 22 22 22 22 22 22 22 22 22 22 22 22 22 22 22 22 22 22 22 22 22 22 22 22 22 22 22 22 22 22 22 22 22 23 22 22 21 21 21 21 21 21 21 21 21 21 21 21
24 24 23 23 22 22 22 22 22 22 22 22 22 22 22 22 21 21 21 21 21 21 21 21 22 22 21 21 22 22 21 22 22 22 22 22 22 22 22 22 22 22 22 22 22 22 22 22 22 22 22 22 22 22 22 22 22 22 22 22 22 22 22 22 23 22 22 22 22 23 23 23 22 22 21 21 21 21 21 21 21 21 21 21 21
24 24 24 24 22 22 23 23 23 23 23 23 22 22 22 22 22 22 22 21 21 21 21 21 22 22 22 21 21 21 21 22 22 22 22 22 22 22 22 22 22 22 22 22 22 22 22 22 22 22 22 22 22 22 22 22 22 22 22 22 22 22 23 23 23 22 22 22 23 23 23 23 22 21 21 21 21 21 21 21 20 20 21 21 21
25 24 24 24 22 22 23 23 23 23 23 23 23 23 23 22 22 22 22 22 22 21 21 22 22 22 22 21 21 21 21 22 22 22 22 22 22 22 22 22 22 22 22 22 22 22 22 22 22 22 22 22 22 22 22 22 22 22 22 22 22 22 22 23 22 22 22 23 23 23 22 22 22 22 21 21 21 22 21 21 21 20 21 21 21
24 24 24 24 22 22 23 22 23 23 23 23 23 23 23 22 22 22 22 22 22 21 21 22 22 21 21 21 21 22 22 22 22 22 22 22 22 22 22 22 22 22 22 22 22 22 22 22 22 22 22 22 22 22 22 22 22 22 22 22 22 22 22 22 22 22 23 23 23 23 22 22 22 22 21 21 21 21 21 21 22 21 21 21 21
24 24 24 23 22 22 22 22 23 23 23 23 23 23 23 22 22 21 21 22 22 21 21 22 22 21 21 21 22 22 22 22 22 22 22 22 22 22 22 22 22 22 22 22 22 22 22 22 22 22 22 22 22 22 22 22 22 22 22 22 22 22 22 22 23 23 23 23 23 23 23 22 22 22 21 21 21 21 21 21 22 21 21 21 21
24 24 24 23 22 22 22 22 23 23 22 22 23 23 22 22 21 21 21 22 22 21 21 21 21 21 21 21 22 22 22 22 22 22 22 22 22 22 22 22 22 22 22 22 22 22 22 22 22 22 22 22 22 22 22 22 22 22 22 22 22 22 22 22 23 23 23 23 23 24 24 23 22 21 21 21 21 21 21 21 21 21 21 21 21
25 24 24 23 22 22 22 22 22 22 22 22 22 22 21 22 21 21 21 21 21 21 21 21 21 21 21 22 22 22 22 22 22 21 22 22 22 22 22 22 22 22 22 22 22 22 22 22 22 22 22 22 22 22 22 22 22 22 21 22 22 22 22 22 23 23 23 23 23 23 24 23 22 21 21 21 21 21 21 21 21 21 21 21 21
25 25 24 23 23 22 22 22 22 21 22 22 21 21 21 21 21 21 21 21 21 21 21 21 21 21 22 22 22 22 22 22 22 21 22 22 22 22 22 22 22 22 22 22 22 22 22 22 22 22 22 22 22 22 22 22 22 22 22 22 22 22 22 23 23 23 23 23 23 23 23 23 22 21 21 21 21 21 21 21 21 21 21 21 21
25 25 24 23 22 22 22 22 22 21 21 22 21 22 22 21 21 21 21 21 21 21 21 21 21 22 22 22 22 22 22 22 22 22 22 21 22 22 22 22 22 22 22 22 22 22 22 22 22 22 22 22 22 22 22 22 22 22 22 22 22 22 22 23 24 23 23 23 23 23 23 23 22 21 21 20 20 20 21 21 21 21 21 21 21
25 25 24 23 22 22 21 21 21 21 21 21 21 21 22 21 21 21 21 21 21 21 21 21 22 22 22 22 22 22 22 22 21 22 21 21 22 21 22 22 22 22 22 22 22 23 22 22 22 23 23 23 23 22 23 22 23 23 22 22 23 23 23 23 24 24 23 23 23 23 24 23 21 21 20 20 20 20 20 20 20 21 21 21 21
25 25 24 23 23 22 21 21 21 20 20 21 21 21 21 21 21 21 21 21 21 21 21 21 22 22 22 21 21 22 22 21 21 21 21 21 21 21 22 21 21 22 22 22 23 23 23 23 23 23 23 23 23 23 23 23 23 23 23 23 23 23 23 23 24 24 24 23 23 23 24 23 21 21 20 20 20 20 20 20 20 20 20 20 21
25 25 24 23 23 23 22 21 20 20 21 21 21 21 21 21 21 21 21 21 21 21 21 21 21 22 21 21 21 22 21 21 21 21 21 21 21 21 21 21 22 22 22 23 23 23 23 23 23 23 23 23 23 23 23 23 23 23 23 23 23 24 23 23 25 25 24 23 23 23 24 23 21 21 20 20 20 20 20 20 20 20 20 20 20
24 24 23 23 23 23 23 22 21 21 21 21 21 21 21 21 21 21 21 21 21 21 21 21 21 21 21 21 21 21 21 21 22 22 22 22 21 21 22 22 22 22 22 23 23 23 23 23 23 23 23 23 23 23 23 23 23 23 24 24 24 24 24 24 25 25 24 23 23 24 24 22 21 21 20 20 20 20 20 21 21 20 20 20 20
24 24 24 23 23 23 23 22 21 21 21 22 21 21 21 21 21 21 20 21 21 21 21 21 21 21 21 21 21 21 21 22 22 22 22 22 21 21 22 22 21 22 23 23 23 23 24 24 23 23 24 24 24 24 24 24 24 24 24 24 24 24 25 25 25 25 24 24 24 24 23 22 21 21 20 20 20 21 21 20 21 21 21 20 20
24 24 24 23 22 23 23 22 22 21 21 21 21 21 21 21 21 20 20 20 21 21 21 21 21 21 21 21 21 21 21 21 22 22 22 22 22 21 22 22 22 23 23 23 23 24 24 24 24 24 24 24 24 24 24 24 24 24 24 24 24 25 26 26 26 25 25 24 24 24 23 22 22 21 20 20 20 21 21 21 21 21 21 21 21
24 24 23 22 22 23 23 22 22 21 21 21 21 21 21 21 21 20 20 20 20 21 21 21 21 21 21 21 21 21 21 21 22 22 22 22 22 22 22 22 22 23 23 23 24 24 24 24 24 24 24 24 24 24 25 25 25 25 25 25 25 26 26 26 26 25 25 25 24 24 23 23 22 22 21 20 21 21 21 21 21 21 21 21 21
24 24 23 23 23 23 23 22 21 21 21 21 21 21 20 20 20 20 20 20 20 20 21 21 21 21 21 21 21 21 22 22 22 21 22 22 22 22 22 22 23 23 23 24 23 24 24 24 24 24 24 25 25 25 26 26 26 25 25 26 26 26 26 26 26 26 26 25 25 24 23 23 22 22 21 21 21 21 21 21 21 21 21 21 21
25 24 24 23 23 23 23 22 22 21 21 21 21 21 20 20 20 20 20 20 20 20 21 21 21 21 21 21 21 21 21 22 22 22 22 22 22 22 22 23 23 23 23 23 24 24 24 24 24 25 25 25 26 26 27 27 27 26 26 27 27 26 26 26 26 26 26 25 25 24 23 23 23 22 22 21 21 21 21 21 21 21 21 21 21
25 24 24 23 22 22 22 22 22 22 22 21 21 21 20 20 20 20 20 20 20 20 21 21 21 21 21 21 21 21 21 22 22 22 22 22 22 23 23 23 23 23 23 23 24 24 24 25 25 25 25 26 27 27 27 27 27 27 27 27 27 27 27 27 26 26 26 25 24 24 23 23 23 23 22 22 21 21 21 22 22 22 22 22 22
25 24 24 23 23 23 22 22 22 22 22 21 21 21 20 20 21 20 20 20 20 20 20 21 21 21 21 22 22 22 22 22 22 22 22 22 23 23 23 23 23 23 23 24 24 24 25 25 25 26 26 27 27 27 27 28 28 28 27 27 27 27 27 27 26 26 26 25 24 24 24 23 23 23 23 22 21 21 22 22 22 22 22 22 22
24 24 24 23 23 23 22 22 22 22 21 21 21 21 20 20 20 20 20 20 20 20 20 21 21 21 21 22 22 22 22 22 22 22 22 23 23 23 24 24 24 24 24 25 25 25 25 25 26 26 27 28 28 27 27 28 28 28 27 27 27 27 27 27 26 26 26 25 25 24 24 24 23 23 23 23 22 22 22 22 22 22 22 22 22
24 24 24 23 23 23 22 22 22 22 21 21 21 20 21 21 21 21 21 21 21 21 21 22 21 21 22 22 22 23 23 23 22 22 23 23 24 24 24 24 24 24 24 25 25 25 26 26 26 26 27 28 28 28 28 27 28 28 28 27 27 27 27 27 26 26 26 25 25 24 24 24 24 23 23 23 23 23 23 23 23 22 22 22 21
25 24 24 23 23 23 22 22 22 22 22 21 21 21 21 22 21 21 21 21 21 22 22 22 21 22 22 22 23 23 23 23 23 23 23 24 24 24 24 24 25 24 24 25 25 25 26 26 26 27 27 28 28 28 28 28 28 28 28 28 27 27 27 27 27 27 27 26 25 25 25 24 24 24 24 23 23 23 23 23 23 23 22 22 21
25 25 24 24 24 23 22 22 22 22 22 21 21 21 21 21 21 21 21 21 22 23 22 22 22 22 22 22 23 23 24 24 24 23 23 23 24 24 24 24 24 24 25 25 25 26 26 26 26 27 27 28 28 28 28 28 28 28 28 28 28 27 27 27 27 27 27 26 26 25 25 25 24 24 24 24 24 24 24 24 23 23 23 22 22
26 25 25 24 23 23 23 22 22 22 22 22 22 21 21 21 21 21 21 22 23 23 22 23 23 23 22 22 23 23 24 24 24 23 23 23 24 24 24 24 24 25 25 26 26 26 26 27 27 27 27 28 28 28 28 28 29 28 28 29 28 28 28 27 27 27 27 27 26 26 25 25 25 25 24 24 24 24 24 24 24 23 23 23 23
26 26 25 24 23 24 23 22 22 22 22 22 22 22 22 22 22 22 22 22 23 23 23 24 23 23 22 22 22 23 24 24 24 24 24 24 24 24 24 24 25 25 25 26 26 26 26 26 26 27 27 28 28 28 28 29 29 29 29 29 29 28 28 28 28 28 28 27 27 26 25 25 25 25 25 24 24 24 24 24 24 24 23 23 23
26 26 25 24 24 24 24 23 22 22 22 22 22 22 22 22 22 23 23 22 22 23 24 24 23 23 22 22 22 22 23 23 23 23 24 24 24 24 24 25 25 25 25 26 26 26 26 26 26 26 27 28 28 28 29 29 29 29 29 29 29 29 28 28 29 28 28 27 27 27 26 25 25 25 25 25 24 24 24 24 24 24 24 24 24
26 26 25 24 24 24 23 23 22 22 22 22 22 22 22 22 23 23 23 22 23 23 23 23 23 23 22 22 22 22 23 23 23 23 23 24 24 24 25 25 25 25 25 25 25 26 27 27 27 27 27 28 29 29 29 29 28 29 30 29 29 29 29 29 29 28 28 28 27 27 26 26 25 25 25 25 25 25 24 24 24 24 24 24 24
26 26 25 25 24 24 23 23 23 23 23 23 22 23 23 23 23 23 22 23 23 23 23 23 23 23 22 22 22 22 22 23 23 23 24 24 24 24 25 25 25 25 25 25 26 27 27 27 27 27 28 28 29 29 30 29 28 29 30 30 30 29 29 29 29 29 28 28 27 27 27 26 26 26 25 25 25 25 25 24 24 24 24 24 24
26 26 25 25 24 24 24 23 23 23 23 23 23 23 23 23 23 23 22 23 23 24 24 23 23 23 23 22 22 22 22 22 23 23 24 24 25 25 25 25 25 25 25 25 26 27 27 27 27 27 28 28 29 29 29 29 28 28 29 29 29 29 29 29 29 29 28 28 27 27 26 25 26 26 25 25 25 25 25 25 25 24 24 24 24
26 26 25 25 25 24 24 24 23 23 23 23 23 23 23 23 23 23 23 23 23 24 24 24 24 23 23 23 22 22 22 22 23 23 24 25 25 25 25 25 24 25 25 25 26 27 27 27 27 27 27 28 29 30 30 29 28 29 29 30 29 29 29 29 29 29 28 28 28 27 27 26 26 25 25 25 25 25 25 25 25 25 25 24 24
26 26 25 25 25 24 24 24 24 23 23 23 23 23 23 23 23 23 23 23 24 24 24 24 24 24 24 23 22 22 23 23 23 23 24 25 25 25 25 24 24 25 25 25 26 27 27 27 27 27 27 27 29 30 30 29 29 30 30 30 29 29 29 29 29 28 27 28 28 28 28 27 26 26 25 25 25 25 25 25 25 25 25 25 25
26 26 25 25 25 24 24 24 24 23 23 23 23 23 23 23 23 23 23 23 24 24 24 24 24 24 24 23 23 23 23 23 23 23 24 25 25 25 25 24 24 25 25 26 26 26 27 27 27 27 27 28 29 29 30 30 30 31 31 30 29 29 29 28 28 28 28 28 28 28 28 28 27 26 26 26 25 25 25 25 25 25 25 25 25
26 26 25 25 25 24 24 24 24 24 23 23 23 23 23 23 24 24 23 24 24 25 25 25 25 25 24 23 23 23 23 23 23 23 24 24 25 25 24 24 24 25 25 26 26 26 26 26 27 27 27 28 28 29 29 29 30 31 31 30 29 29 29 28 28 29 29 28 28 28 28 28 27 26 26 25 25 26 26 25 25 25 25 25 25
26 26 25 24 24 24 24 23 23 24 23 23 23 23 23 24 24 24 24 24 24 24 25 25 25 25 25 24 23 23 23 23 23 23 24 24 25 25 24 24 25 25 25 26 26 26 26 26 27 27 27 28 28 29 29 29 30 31 30 30 29 29 29 28 29 29 29 29 28 28 28 28 26 26 26 26 25 25 25 25 25 26 25 25 25
26 26 25 24 24 24 24 23 23 23 23 23 24 24 24 24 25 25 25 25 24 24 25 25 25 25 24 24 23 23 23 23 23 23 23 24 24 24 24 24 25 25 25 25 25 25 25 26 26 27 27 29 29 30 30 29 30 30 30 30 30 29 29 29 28 29 30 30 29 28 29 27 25 25 26 26 26 26 25 25 25 26 25 25 25
26 26 25 25 24 25 24 24 24 23 24 24 24 24 24 24 25 26 26 25 25 25 25 25 26 25 24 23 24 23 23 23 23 23 23 24 24 24 24 24 24 24 24 25 25 25 25 26 26 27 28 29 29 30 29 29 30 31 30 30 31 30 29 30 30 30 31 31 30 29 29 27 25 25 26 26 26 26 26 25 26 26 25 25 25
26 26 26 25 25 25 24 24 24 24 24 24 24 24 24 24 25 25 26 26 25 26 26 25 26 25 24 24 24 23 23 23 23 24 24 24 24 24 24 24 24 24 24 25 25 25 25 26 27 27 27 28 29 30 29 29 30 31 31 30 31 31 29 30 31 31 31 32 31 30 29 27 27 27 27 27 26 25 26 26 26 26 25 25 25
27 26 26 25 25 25 24 24 24 24 24 23 23 24 24 24 24 24 25 25 25 25 25 25 25 25 25 24 24 23 24 24 24 24 24 24 24 24 24 24 24 24 24 25 25 26 26 26 26 26 27 27 29 30 29 29 30 31 31 30 31 31 30 29 31 32 31 32 32 30 29 28 27 28 28 27 26 26 26 26 26 26 26 26 26
27 27 26 26 26 25 24 24 24 24 24 23 23 23 23 23 23 24 24 24 24 25 25 25 25 25 25 25 24 24 24 24 24 24 24 24 24 24 24 24 24 24 25 25 26 26 26 26 26 26 27 27 28 30 30 29 29 29 29 30 30 29 29 30 31 32 31 32 32 30 29 29 28 28 28 27 28 28 27 26 27 27 26 26 26
27 27 27 27 26 25 24 24 24 24 24 23 23 23 23 23 24 24 24 24 25 25 25 26 26 25 26 26 25 24 24 24 24 24 24 24 24 23 24 24 25 24 25 25 26 26 26 26 26 26 27 26 27 28 29 30 29 29 29 30 29 28 30 31 31 31 31 31 31 30 29 29 29 29 29 29 28 28 27 27 28 28 28 26 26
28 27 27 27 26 26 25 24 24 24 24 24 23 23 23 24 24 25 25 25 25 25 25 26 26 26 26 26 25 25 24 24 25 24 24 24 24 23 24 24 25 25 25 25 25 26 27 26 26 26 26 26 26 26 28 29 29 29 29 30 30 30 30 31 31 31 30 28 28 30 30 30 31 31 30 30 30 29 28 27 28 28 28 27 26
29 28 28 27 26 26 25 24 24 24 24 24 23 23 24 24 24 25 25 25 25 25 25 25 25 25 25 25 25 25 24 24 24 24 24 24 24 24 24 24 25 25 25 25 26 26 26 26 25 25 25 25 26 25 26 28 29 30 29 29 30 30 30 31 31 31 29 27 25 27 30 31 31 32 31 30 31 30 29 28 28 28 27 27 27
29 28 28 27 26 25 25 24 24 24 24 24 23 23 24 24 24 25 25 25 25 25 25 25 25 25 25 25 25 25 24 24 24 24 24 24 24 24 24 24 25 25 25 26 26 26 26 25 25 25 25 26 26 26 26 27 29 30 29 29 29 30 30 30 29 28 28 28 26 26 30 32 30 31 30 28 29 29 29 29 27 27 27 27 27
30 29 28 28 27 26 25 24 24 24 24 24 23 24 24 24 24 24 25 25 25 25 25 25 25 25 25 25 24 24 25 25 24 24 24 24 24 24 24 25 25 25 25 26 26 25 25 25 25 25 25 26 26 26 26 27 28 28 29 29 28 29 29 29 28 27 27 28 28 28 31 32 29 29 29 28 28 28 28 29 28 27 27 27 27
30 29 28 28 27 26 25 25 24 24 24 24 24 24 24 24 24 24 24 25 25 25 25 25 25 24 25 25 25 25 25 25 25 25 24 24 24 24 25 25 25 25 25 25 25 26 26 26 26 26 25 25 26 26 26 27 27 28 29 29 29 30 30 30 30 29 28 28 29 29 28 29 28 28 30 29 28 28 28 30 29 28 28 27 26
Height
824 825 826 827 828 828 829 829 830 830 831 831 832 832 831 832 832 833 833 834 833 834 835 836 838 839 841 840 839 838 838 837 837 838 838 839 839 839 839 839 840 840 840 840 841 841 841 840 841 841 841 840 840 839 839 839 838 838 838 838 838 838 838 838 838 838 838 838 838 838 838 838 839 838 839 839 839 839 839 839 840 840 840 839 839
822 825 826 827 828 828 830 830 831 831 832 832 833 834 833 833 833 834 835 835 835 837 840 840 841 842 841 840 840 839 839 839 839 839 839 840 840 840 840 841 841 842 842 842 842 842 842 842 842 842 842 842 841 841 840 840 839 839 839 839 839 839 839 839 839 839 839 838 839 839 839 839 839 839 839 839 839 839 840 840 840 841 840 840 840
822 826 827 827 828 829 830 830 832 831 832 832 833 834 834 835 836 837 837 838 839 841 843 844 845 844 843 841 840 840 840 840 840 840 840 841 841 841 841 842 842 843 843 843 843 844 844 843 843 843 844 843 842 842 842 841 841 840 840 839 839 839 839 839 839 839 839 839 839 839 839 839 839 840 840 840 840 840 840 840 840 841 841 841 841
823 825 827 827 828 829 830 830 832 832 832 833 834 834 835 836 837 838 839 841 841 842 843 845 847 846 845 843 842 841 841 841 841 841 841 841 842 842 842 843 843 844 844 844 845 845 845 845 845 845 845 844 844 843 843 843 842 842 841 841 840 840 840 840 840 839 840 840 840 840 841 841 840 840 841 841 841 841 841 841 841 841 841 842 842
824 825 827 827 828 829 829 830 831 832 833 833 834 834 835 837 838 839 840 843 844 844 845 846 847 845 847 846 843 842 842 842 842 842 842 843 843 843 843 844 844 845 845 845 846 846 846 846 846 846 846 845 845 845 844 844 843 843 842 841 841 841 840 840 840 840 840 840 840 841 842 842 841 841 841 842 842 842 842 842 842 842 842 843 843
825 826 827 828 829 829 829 830 831 832 833 834 834 835 836 838 839 841 842 844 845 846 847 847 846 844 846 847 845 843 843 843 842 843 843 844 844 844 845 845 845 846 846 846 847 847 847 847 847 847 847 846 846 846 845 845 844 844 843 842 842 841 841 841 840 840 840 840 841 842 843 843 843 842 842 842 842 843 843 843 843 843 844 844 844
825 827 828 828 830 829 829 830 831 832 833 834 834 835 836 838 840 841 842 844 844 845 846 846 845 844 846 848 846 844 844 843 844 844 844 845 845 845 846 846 846 847 847 847 848 848 848 848 848 848 848 848 847 847 846 846 845 845 844 843 842 842 841 841 841 841 840 841 842 842 843 843 843 843 843 843 843 843 844 844 844 845 845 845 845
826 827 828 829 829 829 830 830 831 832 833 834 834 835 836 838 839 840 841 842 843 844 846 845 845 845 847 848 846 845 844 844 844 845 846 846 846 847 847 847 847 848 848 848 849 849 849 849 849 849 848 848 848 848 847 847 846 846 845 844 843 842 842 841 841 841 841 842 842 842 843 843 844 844 843 844 844 844 844 845 845 846 846 846 846
827 828 828 829 829 830 831 831 832 833 834 834 834 835 837 838 839 839 840 841 842 844 846 845 845 846 848 848 846 845 845 845 845 846 847 847 847 848 848 848 848 848 849 849 849 850 849 849 849 849 849 849 849 849 848 848 847 847 846 845 844 843 843 842 841 841 842 842 843 843 843 844 844 844 844 844 845 845 845 846 846 846 846 846 847
828 828 829 829 830 831 832 832 833 834 835 835 836 837 838 840 840 840 840 839 840 843 845 846 846 846 847 847 846 846 846 846 846 846 847 847 848 848 849 849 849 850 850 850 850 850 850 850 850 850 850 850 850 850 849 849 848 848 847 846 845 844 843 843 842 843 844 843 844 844 844 844 844 844 844 845 845 846 846 846 847 847 847 847 847
828 829 830 830 831 831 832 833 833 835 836 837 838 839 841 842 842 842 841 839 840 843 844 846 847 846 845 845 846 846 846 847 847 847 848 849 849 849 850 850 850 851 851 851 851 851 851 851 851 851 851 851 851 851 850 850 849 848 847 847 846 845 845 844 843 844 845 845 845 845 845 845 845 845 845 846 846 846 846 847 847 847 847 847 847
829 830 831 831 831 832 833 833 834 835 836 838 840 840 842 842 843 843 843 842 843 845 844 845 847 846 845 845 846 846 847 847 848 849 849 850 850 850 851 851 851 851 852 852 852 852 852 852 852 852 852 851 852 851 851 850 850 849 848 847 846 846 845 845 845 846 845 845 846 846 846 846 846 846 846 846 847 847 847 847 847 847 847 847 848
830 831 832 833 833 833 833 834 835 836 837 838 840 840 840 841 843 843 844 845 846 845 844 845 845 845 845 845 846 846 847 848 849 849 850 850 851 851 851 852 852 852 853 853 853 853 853 853 853 853 852 852 852 852 851 851 850 850 849 848 847 846 845 845 846 846 846 846 847 847 847 847 847 846 847 847 847 848 848 848 847 847 847 848 848
830 831 832 833 834 835 834 835 836 838 840 839 841 840 840 840 842 843 844 845 845 844 844 845 844 845 845 846 846 846 848 849 850 850 851 851 852 852 852 853 853 853 853 854 854 854 854 854 854 853 853 853 852 852 852 852 851 850 850 848 847 846 846 845 847 847 846 847 847 848 848 848 847 847 848 848 848 848 848 848 848 848 848 848 849
831 831 833 834 835 836 835 836 838 841 842 842 843 841 841 841 842 841 842 844 845 844 844 845 845 846 846 847 847 847 848 849 850 851 852 852 852 853 853 853 853 854 854 854 854 854 855 854 854 854 854 853 853 853 852 852 851 851 850 849 847 846 846 846 847 847 847 847 848 848 848 848 847 848 848 849 849 849 849 849 849 848 848 849 849
832 832 834 835 835 836 836 837 839 842 843 843 843 842 842 842 842 842 843 844 845 845 845 845 846 846 847 848 848 849 850 850 851 853 854 854 854 854 854 854 854 854 854 854 855 855 855 855 855 855 854 854 854 853 853 853 852 851 850 849 848 846 846 846 847 847 847 847 848 849 849 848 848 848 849 849 849 849 850 849 849 849 849 849 849
832 833 834 835 836 836 836 837 839 841 841 841 842 842 842 842 843 842 844 845 845 846 845 846 846 847 848 848 849 850 850 851 852 853 855 856 857 856 855 855 855 855 855 855 855 855 856 855 855 855 855 855 854 854 853 853 852 851 850 849 848 847 846 846 847 847 848 848 848 849 849 849 848 848 849 850 850 850 850 849 849 849 849 850 849
832 833 834 835 836 836 836 837 839 841 840 839 841 841 841 841 842 843 844 845 845 846 846 847 847 847 848 849 850 851 851 851 852 854 854 856 858 857 856 856 856 856 856 856 856 856 856 856 856 856 855 855 855 854 854 853 852 851 850 849 848 847 846 846 847 848 848 849 849 850 849 849 849 849 849 850 850 850 850 850 850 849 849 850 850
833 833 834 835 836 836 836 836 838 841 840 838 840 840 840 841 842 843 844 845 845 846 846 847 847 848 849 850 851 851 852 852 852 854 854 854 857 859 857 857 857 857 857 857 857 857 857 856 856 856 856 856 855 854 854 853 853 852 850 849 848 847 846 846 847 848 849 849 850 850 850 849 849 849 849 850 850 850 850 850 850 849 850 849 849
833 833 834 835 836 837 836 836 838 840 839 838 839 839 840 840 841 843 844 845 845 846 847 847 848 849 850 850 851 852 853 853 853 854 855 854 856 859 859 858 858 858 858 857 857 857 857 857 857 857 856 856 855 854 854 853 853 852 851 850 848 847 846 847 848 848 849 850 850 850 850 850 849 849 849 850 850 850 850 850 850 849 849 849 849
833 833 834 836 836 837 836 836 837 839 839 837 839 839 840 841 841 843 844 845 846 847 847 848 849 849 850 851 852 853 854 854 853 854 855 855 857 860 859 859 858 858 858 858 858 858 858 858 857 857 856 856 855 854 854 854 853 852 851 850 849 848 848 848 848 849 850 851 851 851 850 850 850 849 849 850 850 850 850 850 850 849 849 848 848
832 833 834 835 836 837 837 837 837 838 838 838 839 840 841 841 842 843 844 846 846 847 848 849 849 850 851 851 852 854 854 854 854 855 856 855 857 860 860 859 859 859 859 859 858 858 858 858 858 857 856 856 855 854 854 854 853 853 852 850 850 850 849 849 848 849 850 851 852 851 850 850 850 850 849 849 850 850 850 850 849 849 848 847 847
830 832 833 835 836 837 837 837 838 838 838 838 839 840 841 841 843 843 844 846 846 848 849 849 850 850 851 852 853 854 855 854 854 855 856 856 858 860 860 860 859 859 859 859 859 859 859 859 858 857 856 855 855 855 854 854 854 853 852 852 852 851 850 849 849 849 850 851 852 851 851 850 850 850 850 849 849 849 849 849 848 848 847 846 846
830 831 832 834 835 836 837 838 838 839 838 839 839 840 841 842 843 844 845 846 847 848 849 850 850 851 851 852 853 854 855 854 855 856 856 858 860 861 861 860 860 860 860 860 860 860 860 859 858 857 856 856 855 855 855 854 854 853 853 853 853 852 851 851 850 850 850 851 852 852 851 850 849 849 849 849 849 849 849 848 847 847 847 846 845
829 831 832 833 834 835 837 838 839 839 839 840 840 841 841 842 843 844 845 846 847 848 849 850 851 851 852 853 854 854 855 855 856 857 858 859 861 861 861 861 861 861 861 861 861 861 860 860 859 858 857 856 856 855 855 855 854 854 854 855 854 853 853 852 851 850 850 851 851 852 852 851 850 849 848 848 848 849 849 848 847 846 846 846 845
830 831 832 833 834 835 836 837 839 839 839 840 840 841 841 842 843 844 845 846 847 848 849 850 851 851 852 853 854 854 854 855 857 858 859 860 861 862 861 861 862 861 861 861 861 861 861 861 860 859 858 857 856 856 856 855 855 855 856 856 855 855 854 853 853 852 851 851 850 850 851 852 851 850 849 848 847 847 848 848 848 846 846 845 845
830 831 832 833 834 835 836 837 838 839 839 839 840 841 841 842 843 844 845 846 847 848 849 850 851 852 852 853 853 854 855 856 857 858 859 860 861 861 861 862 861 862 862 862 862 861 861 861 860 860 858 857 857 857 856 856 855 855 856 857 856 856 855 855 854 853 852 851 850 849 850 851 852 852 851 849 848 847 847 847 847 846 845 845 845
829 831 832 833 834 835 836 837 838 839 838 839 840 841 841 842 843 844 845 846 847 848 850 850 851 852 852 853 853 854 855 856 857 858 859 860 861 861 861 862 861 862 862 862 862 862 862 861 861 860 859 858 857 857 856 856 856 855 856 857 857 857 857 856 855 854 853 852 851 849 849 849 850 851 851 851 849 848 847 847 847 846 845 845 844
828 830 832 832 834 834 835 837 838 838 838 838 840 841 842 842 843 844 845 846 847 848 850 850 851 852 853 853 854 855 856 857 858 859 860 860 861 861 861 862 862 862 862 862 862 862 862 861 861 860 860 859 858 858 857 856 856 856 856 856 857 858 857 857 856 855 854 853 852 850 849 849 849 850 850 850 850 850 849 848 847 846 846 845 844
828 829 831 832 833 834 835 836 838 839 839 839 840 841 842 843 843 845 846 846 848 849 850 851 852 852 853 854 855 855 856 857 858 859 860 861 861 862 862 862 862 862 862 862 862 862 862 862 862 861 860 859 859 858 858 857 856 856 856 856 857 857 857 857 857 856 855 854 853 852 851 850 849 849 850 850 850 850 849 849 848 847 846 845 844
828 829 831 832 833 834 835 836 838 839 839 840 840 842 843 843 844 845 846 847 848 849 850 851 852 852 853 854 854 855 857 857 859 860 860 861 861 862 862 862 862 862 862 862 862 862 862 862 862 862 861 860 859 859 858 857 857 856 856 856 856 857 857 857 856 855 855 855 854 854 853 851 850 850 850 850 850 850 850 849 848 848 847 845 844
827 829 831 832 833 834 835 836 837 838 840 840 841 842 843 844 845 846 846 847 849 849 850 851 852 853 853 854 855 856 857 858 859 860 861 861 862 862 862 862 862 862 863 862 862 863 862 863 863 862 862 860 859 859 858 858 857 856 856 856 856 856 856 856 855 855 855 855 855 855 855 853 852 851 851 850 850 850 850 850 849 848 847 846 845
827 829 831 832 833 834 835 836 837 838 840 840 841 842 843 844 845 846 847 848 849 850 851 852 852 853 854 855 856 856 857 859 859 860 861 862 862 862 862 862 863 863 863 863 862 863 863 863 863 862 862 860 859 858 858 858 858 857 856 856 856 856 856 856 855 855 855 855 856 856 856 856 854 852 852 851 851 850 850 850 850 849 848 847 846
827 829 831 832 833 834 835 836 837 838 839 840 841 842 843 844 845 846 847 848 849 850 851 852 853 854 855 855 856 857 858 859 860 861 861 862 862 862 863 863 863 863 863 863 863 863 863 863 863 862 861 860 859 858 858 859 859 857 857 857 856 856 856 856 855 855 855 855 856 856 857 857 856 855 854 853 852 851 851 851 850 850 849 848 847
827 829 831 832 833 834 835 836 837 838 839 840 841 842 843 844 846 847 848 849 849 851 851 852 854 854 855 856 857 858 859 860 860 861 862 862 862 862 863 863 863 863 863 863 863 863 863 863 863 862 861 860 859 858 858 860 859 858 858 858 858 857 857 857 856 855 856 856 856 857 858 857 856 857 856 855 854 852 852 851 851 850 850 849 848
827 829 831 832 834 835 836 836 838 839 840 841 842 843 844 845 846 847 848 849 850 851 852 853 854 855 856 857 858 858 859 860 860 861 862 862 862 862 862 863 863 863 863 863 863 863 863 863 863 862 862 861 859 857 858 860 860 858 858 858 858 858 858 857 856 856 856 856 856 857 859 858 857 857 857 856 856 854 853 852 852 851 850 849 848
827 829 831 832 834 835 836 837 838 839 840 841 842 843 844 845 846 848 848 849 850 851 852 853 854 855 856 857 858 859 860 860 861 861 862 862 862 862 862 863 863 863 863 863 863 862 862 863 863 862 862 861 859 857 857 858 858 857 857 857 858 858 858 857 856 857 858 856 856 856 858 858 858 857 856 857 857 855 854 852 852 851 850 850 849
827 829 831 833 833 835 836 837 838 840 841 841 843 844 845 846 847 848 849 850 851 852 852 854 855 856 857 858 858 859 860 861 861 862 862 862 862 862 863 863 863 863 863 863 863 863 862 862 862 862 862 861 859 858 857 856 855 854 854 856 858 857 858 858 856 857 858 857 856 856 857 857 857 858 858 859 858 856 855 853 852 851 850 850 849
827 828 831 833 834 835 836 838 839 840 841 842 843 845 845 847 848 849 850 851 851 852 853 854 855 856 857 858 859 860 861 861 862 862 862 862 862 863 863 863 863 863 863 863 863 863 862 863 862 862 862 861 860 858 857 856 854 853 853 855 858 858 858 858 857 857 857 856 856 856 856 855 856 858 859 859 858 855 855 855 853 852 852 850 850
826 828 831 833 834 835 836 838 839 840 842 843 844 845 846 847 848 849 850 851 852 852 854 854 855 856 857 858 859 860 861 861 862 862 862 862 863 863 863 863 864 863 863 863 863 863 863 863 862 862 861 860 859 858 857 856 854 853 854 855 857 858 859 858 857 856 855 854 855 855 854 855 857 859 859 859 858 855 856 856 854 853 854 852 850
826 828 830 832 834 835 836 837 839 840 841 843 844 845 846 847 848 849 850 851 852 853 854 855 856 857 858 859 859 860 861 861 862 862 862 863 863 863 863 864 864 863 863 863 863 863 863 863 862 862 861 859 858 856 856 857 855 855 856 855 855 857 858 857 855 854 853 852 852 854 853 855 859 860 858 858 858 856 857 857 854 854 855 853 851
825 828 829 831 834 835 836 837 839 840 841 842 844 845 846 847 848 848 849 851 852 853 854 855 856 857 858 859 860 860 861 861 862 862 862 863 863 863 864 864 864 864 864 863 863 863 863 863 863 862 860 859 857 856 857 856 854 854 854 854 852 854 855 854 853 853 851 849 850 852 852 854 857 858 857 857 858 857 857 857 854 853 853 852 852
824 827 829 831 833 834 836 837 838 840 841 843 844 845 846 847 848 849 849 851 852 853 854 855 856 857 858 859 860 860 861 861 862 862 863 863 863 864 864 864 864 864 863 863 863 863 863 863 863 862 860 859 857 856 857 856 853 852 853 854 852 852 855 854 851 850 849 848 848 850 853 854 855 855 856 857 858 858 856 856 854 852 852 852 852
823 825 827 830 831 834 835 836 838 840 841 843 844 845 846 848 849 850 850 851 853 854 854 856 856 857 858 859 860 860 861 862 862 862 863 863 863 863 864 864 864 864 864 864 863 863 863 863 863 863 862 860 857 856 857 856 854 853 853 853 850 852 858 856 850 847 848 847 847 849 852 854 854 853 853 854 856 856 854 854 853 852 852 852 851
822 824 826 828 830 832 835 836 838 839 841 842 844 845 846 848 849 850 851 852 853 854 855 856 856 857 858 859 860 860 861 862 862 862 863 863 863 863 864 864 864 864 864 864 864 863 863 863 863 863 862 862 859 857 857 856 856 855 854 853 855 859 858 853 849 848 847 846 847 849 850 852 854 852 851 852 852 853 852 852 852 852 852 852 851
820 822 824 826 829 831 833 836 837 839 841 842 843 845 846 847 849 850 851 852 853 854 854 855 856 857 857 858 859 860 861 862 862 862 863 863 863 863 863 864 864 864 864 864 864 863 863 863 863 863 863 862 861 859 857 856 856 856 855 854 858 861 855 849 850 850 849 848 848 849 850 851 851 848 848 848 849 850 851 851 851 850 850 851 851
818 821 823 825 828 830 832 835 836 838 840 841 843 844 846 847 848 849 850 851 852 853 854 855 856 856 857 858 859 860 861 861 862 862 862 863 863 863 863 864 864 864 864 864 864 863 863 863 864 863 863 862 862 861 858 856 856 856 856 854 854 854 852 850 850 850 853 855 853 849 847 848 847 845 845 846 845 847 849 851 851 849 849 851 851
816 819 821 823 826 829 831 833 836 837 839 841 842 843 845 846 848 849 849 851 851 853 854 855 856 857 857 858 859 860 860 861 861 862 862 863 863 863 863 864 864 864 864 864 864 863 863 864 864 864 863 863 863 863 861 859 856 856 856 856 854 853 852 851 850 850 855 859 859 853 847 845 844 843 845 846 845 846 847 849 850 850 850 850 850
814 817 819 822 825 828 830 832 834 836 838 839 841 843 844 845 847 848 849 850 851 852 854 855 856 856 857 858 858 859 860 860 861 861 862 862 862 863 863 863 864 864 864 863 863 864 864 864 864 864 864 863 863 863 862 861 858 856 857 857 856 854 852 852 853 854 854 856 858 856 848 844 845 845 846 849 848 848 847 847 849 850 849 849 849
812 816 818 821 824 826 829 831 833 835 837 838 840 842 843 845 846 847 848 850 851 852 853 854 855 856 857 858 858 859 859 860 860 861 861 862 862 863 863 863 863 863 863 863 863 864 863 864 864 864 864 863 863 863 863 862 860 858 858 858 857 855 854 854 855 856 856 855 855 853 847 844 848 849 847 849 850 849 848 847 847 848 848 849 849
811 814 817 819 822 824 827 829 831 833 835 837 839 841 842 844 845 846 847 849 850 851 852 853 854 855 856 856 857 858 858 859 859 860 860 861 861 862 862 863 863 863 863 863 863 863 863 863 863 863 863 863 863 863 863 862 861 860 858 857 856 854 854 853 853 854 855 854 852 852 851 850 851 850 847 848 849 848 847 846 846 846 847 849 849
Wind_Speed
12 12 14 14 15 15 14 15 14 14 14 14 14 13 13 12 12 12 13 12 12 12 11 11 9 10 11 11 12 12 13 14 14 14 15 15 15 16 17 17 17 18 19 19 18 18 17 17 16 16 16 16 16 15 15 15 15 14 14 15 15 15 14 13 13 13 12 12 11 11 11 10 10 10 10 9 9 8 8 8 8 8 8 9 9
13 13 13 14 16 15 15 15 14 14 14 16 15 14 14 13 12 12 13 13 13 12 11 10 9 10 11 12 12 13 13 14 14 14 15 15 15 16 17 17 18 18 18 18 17 17 16 16 16 15 15 15 16 15 15 14 14 14 13 13 13 13 13 12 12 12 11 11 11 10 10 10 10 9 9 9 9 8 7 8 9 8 8 9 8
13 13 12 14 16 14 14 14 14 14 14 16 16 15 15 15 13 13 14 14 14 13 12 11 9 10 12 13 14 14 14 14 14 14 15 15 15 16 16 17 17 18 17 17 16 16 15 15 15 14 14 15 15 15 14 14 14 14 13 12 12 12 11 11 11 10 10 10 10 9 9 11 11 10 8 8 8 8 7 7 8 8 8 8 8
13 13 11 13 15 14 13 13 14 14 14 15 16 16 16 16 14 14 14 13 14 13 14 12 11 11 12 14 15 15 14 14 14 15 15 15 15 16 16 16 16 17 16 16 15 15 14 14 15 14 13 14 14 13 13 13 13 13 13 12 12 11 11 11 10 10 9 8 9 8 8 10 11 10 9 8 8 7 7 7 7 7 7 8 7
13 12 11 11 12 13 12 12 13 13 14 14 14 16 17 17 16 15 15 15 15 15 14 14 14 14 13 13 15 14 14 14 15 15 15 15 15 15 16 16 16 16 16 15 14 14 14 15 15 14 13 13 13 13 13 13 14 14 13 12 12 11 11 10 9 8 7 7 9 8 7 8 9 10 9 8 7 6 7 7 7 7 7 7 6
14 12 12 11 11 11 11 11 11 11 13 13 14 15 16 17 16 16 16 17 17 16 15 16 16 16 14 12 13 14 14 15 15 15 15 14 14 15 15 15 15 15 15 14 14 14 14 15 15 14 13 13 12 12 13 14 15 14 14 14 13 12 11 10 9 7 7 7 8 7 7 7 7 9 10 9 8 6 6 7 7 7 7 7 7
14 13 12 11 11 11 11 11 10 10 12 12 13 13 14 16 16 15 15 16 15 15 15 16 15 16 15 12 13 14 15 16 16 15 15 14 14 14 14 14 14 14 14 14 14 14 15 15 14 14 13 13 12 13 13 14 15 15 15 16 15 13 11 10 8 8 9 7 7 7 7 7 6 7 9 9 8 7 7 7 7 6 6 7 6
13 13 12 11 11 11 11 11 10 11 12 12 12 12 13 14 15 14 13 14 13 13 14 15 15 16 14 13 13 14 15 15 16 15 15 15 14 14 13 13 13 13 14 14 13 13 14 14 14 14 13 13 13 13 13 14 14 15 16 17 17 16 13 10 9 10 10 8 8 8 8 7 6 7 8 8 8 8 8 7 6 6 5 6 6
13 13 12 11 11 13 12 11 10 11 11 11 11 12 12 13 14 13 12 13 13 12 14 15 16 16 14 14 14 14 14 14 15 15 15 14 14 14 13 13 13 13 13 13 13 13 13 13 13 13 13 13 13 13 13 13 13 13 14 15 16 16 15 12 11 11 9 8 9 9 9 8 6 7 8 7 7 8 8 5 6 6 5 5 6
14 13 12 11 12 13 13 12 10 10 11 11 11 11 12 13 14 13 11 12 13 13 13 14 14 14 15 15 14 14 14 13 14 14 14 14 14 14 13 13 13 13 12 12 12 12 12 11 12 12 13 13 13 13 13 13 12 11 12 13 13 14 14 13 11 9 7 8 8 8 9 9 8 9 9 8 7 7 6 5 5 5 4 4 4
14 13 13 12 13 12 12 11 9 9 9 9 10 10 11 13 15 14 12 12 12 13 15 15 13 13 13 15 14 14 14 13 13 13 13 13 14 13 13 13 13 12 11 12 11 11 11 10 11 11 12 12 12 12 13 12 12 10 10 11 12 12 12 13 10 7 7 7 7 6 8 9 9 9 9 8 7 6 6 5 5 4 4 5 4
14 14 13 14 14 12 11 10 9 8 8 9 8 8 9 11 13 14 13 12 12 12 15 16 14 12 13 14 14 14 14 13 12 12 13 13 13 13 13 13 12 12 11 11 10 10 10 10 10 10 10 10 10 11 12 12 11 10 9 10 11 11 11 12 9 7 7 6 6 6 6 7 8 8 8 8 7 7 6 6 6 5 4 4 4
14 13 13 14 14 13 12 11 12 10 10 11 9 9 9 9 10 11 12 12 12 13 15 15 14 13 13 14 14 14 13 13 12 11 12 13 13 13 13 13 12 11 10 10 10 9 9 8 8 8 9 9 9 10 10 11 11 10 10 10 12 12 10 10 8 7 7 5 5 6 5 6 7 6 6 7 8 7 7 6 5 5 5 4 4
14 12 12 12 13 13 13 13 13 10 10 12 10 10 10 9 10 10 11 12 11 13 14 14 14 14 14 14 14 14 13 12 11 11 12 13 13 13 13 12 11 11 10 9 8 8 8 8 7 7 7 7 8 8 9 9 10 10 10 11 13 13 10 7 6 6 6 6 5 5 6 6 6 5 6 7 8 8 7 6 5 5 5 5 5
12 12 11 11 12 12 12 11 11 11 10 11 10 9 10 10 11 11 12 12 10 11 13 13 13 14 15 14 13 13 13 12 11 12 13 13 12 13 13 12 10 10 9 8 7 7 7 7 6 5 5 6 6 7 7 8 9 10 10 12 14 15 11 6 5 5 5 5 5 5 6 6 6 6 7 7 7 7 7 6 6 6 6 6 6
11 11 10 10 11 10 9 10 11 11 10 10 11 10 10 10 10 10 11 11 10 11 12 13 14 15 14 13 13 13 13 12 12 12 12 11 11 12 12 11 10 9 8 7 7 7 7 6 5 5 4 5 5 6 6 7 8 10 10 12 15 16 13 7 5 5 5 6 6 6 7 6 6 7 7 6 6 6 5 5 5 6 6 7 7
11 9 9 10 9 8 8 8 10 12 10 10 11 11 10 10 10 10 11 11 11 11 11 13 14 14 13 13 14 13 12 12 13 13 12 10 9 10 11 10 9 8 8 8 7 7 6 5 5 4 4 4 4 5 6 6 8 10 10 12 14 15 13 8 5 5 5 6 6 6 7 4 4 6 6 5 5 5 6 5 4 4 4 5 6
9 8 8 9 8 7 7 6 8 10 9 9 10 10 9 10 10 11 11 11 11 11 11 12 13 13 13 14 14 13 12 12 13 13 13 12 7 7 9 9 9 8 8 8 7 7 6 5 4 4 3 3 4 5 5 6 8 10 11 13 14 13 13 9 5 5 6 6 6 7 6 2 3 5 5 5 5 5 5 6 6 5 4 4 4
8 7 7 7 7 6 5 5 7 9 7 7 9 10 10 10 10 11 10 10 11 12 11 11 12 12 13 15 14 13 12 12 13 12 13 13 8 6 7 7 7 7 7 7 6 6 5 4 4 3 3 3 4 5 6 7 8 10 11 13 13 12 11 8 6 5 6 6 7 7 6 4 4 5 5 5 5 5 5 5 6 6 5 4 4
7 6 6 6 6 5 4 4 6 8 5 5 8 9 10 10 10 10 10 11 11 12 12 12 12 12 13 14 13 12 12 12 13 11 10 11 8 6 5 5 7 7 7 7 7 7 6 5 4 3 3 4 4 6 7 8 9 10 11 11 12 11 9 6 5 6 6 7 8 7 7 6 6 5 5 5 5 6 6 5 6 6 6 5 5
6 6 6 6 6 5 4 4 6 8 5 4 6 7 9 9 9 9 10 11 11 11 11 11 12 11 13 13 12 12 12 12 13 12 9 10 9 5 4 5 7 8 8 9 9 9 8 6 4 4 3 5 6 6 7 9 11 11 11 11 11 9 7 6 6 6 6 7 7 7 8 7 6 6 5 6 6 6 7 7 6 6 6 6 6
7 7 6 6 6 5 5 5 6 8 6 5 6 6 8 9 9 9 9 11 12 11 11 11 10 10 11 12 12 11 11 12 12 11 9 10 9 4 4 6 9 10 10 10 11 10 8 6 5 4 5 7 7 5 5 7 11 12 12 11 10 8 7 7 6 6 7 7 8 8 9 8 7 6 5 5 6 7 7 7 7 7 7 7 7
7 7 7 7 6 5 5 5 6 8 7 6 6 6 8 10 9 9 9 11 12 11 10 10 10 9 11 12 11 10 11 12 12 10 9 10 8 5 6 8 10 11 11 11 11 10 7 6 5 6 7 8 6 4 5 6 7 9 10 10 9 8 7 7 7 7 7 8 8 9 10 9 8 8 7 6 6 7 7 8 8 8 8 8 7
6 6 6 6 6 6 6 6 7 7 7 7 6 7 8 9 9 9 9 10 11 11 10 10 9 9 10 11 10 10 11 12 12 11 10 10 7 6 7 9 10 10 11 10 8 8 7 6 7 7 7 6 5 5 6 7 7 8 10 10 10 9 9 8 8 8 8 8 9 10 10 10 10 9 9 8 6 7 8 9 10 10 9 8 8
5 5 5 5 6 6 7 8 8 7 7 7 7 8 9 9 9 9 9 9 10 10 10 10 9 9 10 10 10 10 10 11 11 10 10 9 8 7 7 8 8 8 9 7 6 6 6 5 6 6 5 6 7 7 7 7 8 10 10 11 10 10 10 9 8 7 8 8 9 10 11 11 11 11 11 11 8 7 9 10 10 10 9 8 8
5 5 5 6 6 6 7 8 8 8 7 8 7 8 9 9 9 10 10 9 10 10 10 10 10 9 9 9 10 10 10 10 10 9 9 8 7 6 6 8 8 7 7 6 6 5 5 5 6 6 5 6 8 7 7 7 8 9 10 10 10 10 9 9 8 7 7 7 9 11 11 11 11 11 12 13 12 10 10 9 9 9 9 9 8
5 5 6 6 7 7 8 8 8 8 7 8 8 8 8 9 9 10 10 10 10 11 11 11 10 9 9 9 9 9 9 10 9 9 8 8 7 7 7 8 7 6 5 5 5 5 5 6 6 6 6 7 8 7 7 7 7 8 10 9 9 9 8 8 7 6 6 6 8 11 11 11 12 12 13 13 14 13 12 11 10 10 10 10 9
6 6 6 7 7 8 9 9 8 9 8 8 9 10 9 9 10 11 11 11 11 12 11 11 10 9 9 9 9 9 10 10 9 9 8 8 7 8 8 7 6 5 5 5 5 5 5 6 6 6 6 6 7 7 6 7 6 7 8 8 8 7 7 7 6 5 5 5 6 9 11 11 12 13 13 14 14 13 13 12 12 12 11 10 10
7 7 6 7 7 8 10 10 10 9 9 8 8 10 10 10 11 11 12 13 11 11 11 11 11 10 10 9 8 9 10 10 10 9 8 8 8 8 7 6 5 4 4 4 4 4 5 6 6 6 6 6 7 6 6 6 6 7 6 7 8 6 5 6 5 4 4 4 4 7 9 11 12 13 14 15 15 15 14 13 13 14 13 12 12
8 8 7 7 8 8 9 11 12 10 10 9 8 10 10 10 11 11 12 13 12 12 12 11 11 10 10 9 8 9 10 10 10 9 8 8 8 7 6 5 5 4 3 3 3 4 4 5 5 5 6 6 6 5 5 6 6 7 6 6 8 6 5 5 4 3 3 4 3 4 8 9 10 12 13 14 15 15 15 14 14 15 15 15 15
8 8 7 7 8 8 9 11 12 11 10 10 10 10 11 11 11 11 12 12 12 12 11 11 11 10 10 10 9 8 9 9 9 9 9 8 7 6 5 4 4 3 2 3 3 4 4 5 5 5 5 5 5 5 5 6 5 6 6 5 6 5 4 3 3 3 2 3 2 2 5 7 9 10 11 11 13 14 15 15 15 15 16 16 17
9 8 8 8 8 9 10 11 12 12 11 11 11 11 11 11 11 11 11 12 12 12 11 11 10 10 11 10 9 8 8 9 9 9 8 7 6 5 5 3 3 3 2 2 2 3 3 4 5 4 4 4 5 5 4 6 5 5 5 5 4 4 3 2 2 2 2 3 2 2 3 5 7 8 9 10 10 12 13 14 15 15 15 16 17
9 8 8 9 9 9 10 10 11 11 11 11 12 11 12 11 11 11 11 12 11 11 11 11 10 11 11 10 9 8 8 8 8 8 7 7 6 4 4 3 2 2 2 2 2 2 2 3 4 3 4 3 4 4 5 6 3 2 4 4 4 4 3 2 2 2 1 2 2 3 4 3 4 6 7 9 9 10 11 12 13 14 15 15 16
9 9 9 9 9 9 9 10 10 11 11 11 11 11 12 11 10 11 11 11 10 11 11 11 11 11 11 10 9 8 8 8 8 7 6 5 5 4 3 3 2 1 1 2 1 1 2 3 3 3 3 2 4 4 5 7 2 2 3 3 4 3 3 2 2 2 1 2 3 3 4 4 4 4 6 8 9 9 10 10 11 12 14 14 15
10 9 10 10 9 9 9 9 10 11 10 10 11 10 10 10 10 10 10 10 10 11 11 11 11 11 11 10 9 8 8 8 7 6 4 4 4 3 3 2 1 1 1 2 1 1 1 2 3 3 3 3 3 3 5 7 3 1 1 3 4 3 4 3 1 3 2 2 2 3 5 4 4 4 4 6 8 9 9 9 10 11 12 13 14
11 10 10 10 10 10 9 10 11 11 11 10 10 10 10 10 10 10 10 9 10 10 11 11 11 11 10 10 9 8 7 7 6 5 4 3 3 3 3 2 2 1 1 2 1 1 1 1 2 3 4 3 2 2 5 6 3 4 3 4 4 2 4 3 3 5 3 2 2 3 5 3 1 3 4 5 7 9 11 10 10 10 11 12 12
11 11 11 10 11 11 10 11 12 11 11 10 10 10 10 10 10 10 10 10 10 10 10 10 10 10 10 9 9 8 7 7 6 5 3 2 2 2 2 2 2 1 2 1 1 1 1 1 1 3 3 2 2 2 4 4 5 5 4 5 3 1 4 2 3 7 3 1 2 2 4 3 4 4 4 5 6 7 9 10 10 10 11 11 11
12 12 11 10 11 11 10 11 12 11 11 11 10 10 10 10 10 10 10 10 10 10 10 10 10 10 9 9 9 8 7 7 6 5 3 2 2 2 2 2 2 2 2 1 1 1 1 1 1 2 2 2 2 2 1 1 3 5 4 6 3 0 4 3 1 4 4 3 3 2 3 1 5 5 4 3 4 5 6 8 10 10 11 11 10
12 13 12 10 11 11 11 11 11 11 12 11 11 10 11 10 10 11 10 9 10 10 10 10 10 10 9 9 9 8 7 6 6 5 3 2 2 2 2 2 2 2 2 1 1 1 2 2 1 2 2 1 1 2 1 1 3 2 2 5 4 0 3 2 2 2 3 5 3 1 1 0 5 6 3 2 2 4 5 6 7 7 9 11 10
12 14 13 11 11 11 12 12 11 11 12 12 11 11 11 11 11 11 10 10 10 10 10 10 9 9 9 10 9 8 7 6 6 5 3 2 2 2 2 1 1 2 2 2 2 2 3 2 2 3 3 2 1 1 0 2 4 0 1 1 3 2 2 1 2 2 3 5 2 1 1 2 5 5 2 1 1 3 5 6 5 5 7 10 12
13 14 14 12 12 12 12 13 12 12 12 12 11 11 11 11 12 12 11 11 10 10 9 9 9 9 10 9 8 7 7 6 6 5 4 3 2 2 2 1 1 1 2 3 3 4 3 2 3 3 3 2 1 1 1 1 3 2 2 4 4 3 2 3 3 5 4 4 3 2 1 3 6 4 0 1 2 2 2 4 4 5 6 8 10
14 15 14 13 12 12 13 13 13 13 13 12 12 11 11 11 11 11 12 11 10 10 10 9 9 9 10 9 7 6 6 6 5 4 4 3 3 3 2 2 1 1 2 2 3 3 3 2 2 3 3 2 2 1 2 2 4 3 2 4 4 5 3 4 7 6 5 2 3 4 2 1 4 3 1 2 3 2 1 3 3 5 6 5 6
14 15 15 14 14 13 13 14 14 13 13 12 12 11 10 10 9 10 10 11 11 9 9 9 8 9 10 8 6 6 6 6 5 5 4 4 3 3 3 2 1 1 1 2 2 2 2 1 1 3 4 4 2 1 2 3 4 1 2 2 3 4 3 3 7 5 4 4 1 2 1 1 3 2 1 2 2 3 1 2 2 3 3 4 5
15 16 16 15 15 14 14 15 15 14 13 13 12 11 11 10 8 8 8 9 9 8 7 8 8 9 9 8 7 7 7 6 5 5 4 4 4 3 3 2 1 0 1 1 1 2 2 1 2 2 3 6 3 1 2 3 4 3 1 2 2 2 1 3 7 4 3 5 3 3 4 2 0 2 1 0 3 5 2 2 1 2 2 3 3
15 16 17 16 15 15 15 15 15 14 14 14 13 12 12 10 9 9 8 7 8 7 8 9 9 8 9 9 8 8 7 6 6 5 4 4 4 3 2 2 1 0 1 1 1 1 1 2 2 2 2 4 4 2 2 2 3 3 4 3 1 2 1 3 5 2 4 5 3 4 4 3 3 1 2 4 2 4 3 2 2 2 1 1 2
15 16 17 16 16 16 17 16 15 15 14 15 14 13 12 11 10 10 9 8 9 9 9 9 9 9 9 9 9 8 7 6 6 5 4 4 4 3 2 2 1 1 1 1 0 0 1 2 2 1 3 3 4 4 1 1 2 2 3 2 0 3 3 4 4 1 2 4 6 2 4 2 6 4 3 5 4 1 2 2 4 3 2 3 3
14 15 16 16 16 16 18 17 16 15 15 15 16 14 13 12 12 11 10 10 9 9 8 8 8 8 7 8 8 8 7 6 6 5 5 4 4 3 2 2 2 2 1 1 2 1 1 2 1 2 3 3 3 5 4 1 1 2 3 2 1 2 4 4 4 3 1 3 7 9 2 2 6 2 2 3 0 3 3 2 6 6 4 5 3
15 16 16 17 17 17 18 18 16 15 15 16 17 15 13 13 13 12 10 10 9 9 8 7 7 7 6 6 7 7 7 6 6 5 5 5 4 3 3 3 3 3 2 3 2 1 1 1 1 1 1 2 2 3 6 5 2 1 2 4 3 3 3 3 4 5 3 2 4 11 5 2 4 2 5 7 8 5 3 1 5 7 6 6 3
15 16 16 17 18 17 18 18 17 16 16 17 18 16 14 13 13 12 10 10 8 8 9 8 7 6 6 6 5 6 6 7 6 6 6 5 5 4 3 3 4 4 4 3 2 2 1 1 1 0 0 1 1 1 3 5 5 2 1 3 5 5 4 5 5 7 7 2 0 5 6 2 4 6 7 8 10 9 4 1 1 2 3 3 3
15 15 16 16 18 18 18 19 18 17 17 17 18 17 16 14 13 13 11 10 9 8 9 9 8 7 6 6 6 6 6 7 7 7 7 6 6 5 4 4 5 4 4 3 3 3 3 3 3 2 1 1 1 1 2 2 4 4 2 1 3 4 3 4 4 5 8 6 2 4 6 4 5 6 5 5 5 7 8 5 2 1 1 2 2
16 15 16 16 17 18 19 20 19 18 18 18 18 18 17 15 14 13 12 12 11 10 9 9 9 8 8 8 7 6 6 7 7 8 8 8 7 6 6 5 5 5 4 4 4 4 3 4 3 2 2 2 2 2 3 3 2 3 3 1 3 4 2 4 2 0 4 5 3 5 7 9 8 8 4 2 3 5 6 6 3 3 4 3 3
Wind_Direction
154 147 139 136 128 125 119 114 113 114 117 117 115 116 115 113 114 112 114 114 109 106 107 110 120 136 141 135 124 121 120 116 111 107 104 102 103 104 103 103 103 104 104 103 101 98 96 94 92 90 88 85 82 79 77 75 74 75 73 74 77 78 80 82 83 83 83 83 85 86 86 85 85 86 86 86 89 93 96 94 94 97 100 102 102
154 143 137 136 128 125 121 121 119 117 121 124 124 123 121 120 121 120 118 118 120 121 122 126 136 144 138 130 126 125 122 116 112 109 107 106 105 103 103 103 104 104 103 101 99 96 95 96 93 91 89 85 83 79 77 76 74 73 72 73 75 78 80 81 82 83 85 86 85 83 83 81 83 88 87 88 91 91 88 92 98 97 96 100 101
144 137 137 137 128 123 122 125 123 121 126 129 130 130 128 129 131 129 127 131 133 131 126 129 139 138 131 128 127 127 123 117 113 112 109 108 107 105 104 104 105 103 102 101 100 98 96 97 96 95 92 87 83 80 77 75 73 71 68 68 69 72 75 77 78 81 84 86 82 76 75 71 72 83 87 88 91 91 85 85 94 95 96 98 100
138 134 137 137 127 124 126 129 126 128 131 130 132 135 135 133 133 131 130 132 132 131 129 136 142 132 127 127 126 126 122 118 116 114 111 110 109 108 107 106 105 104 103 102 100 98 97 96 96 96 91 85 82 79 76 74 72 68 65 63 61 62 64 67 70 74 79 82 82 79 75 73 70 74 81 84 84 84 81 80 85 86 90 98 101
137 134 135 134 129 128 133 131 129 133 133 130 133 137 139 136 133 135 135 137 143 144 144 147 143 132 128 128 125 123 120 117 117 116 112 111 110 109 108 108 107 105 102 101 98 96 97 97 95 91 85 81 79 79 77 76 73 68 64 60 58 58 57 59 61 66 72 69 74 78 75 80 77 72 73 75 77 78 76 74 78 81 84 89 93
137 136 136 136 135 137 140 132 130 135 132 130 132 136 140 138 135 138 138 144 153 150 147 147 140 132 129 130 126 120 118 117 118 117 112 110 110 110 110 109 107 104 100 98 97 96 96 96 92 87 83 79 79 81 81 78 73 68 63 60 58 57 57 58 57 58 64 59 61 71 70 75 78 74 69 63 64 70 74 69 68 76 81 78 77
136 137 139 140 140 147 146 132 131 134 130 130 132 136 140 139 134 134 135 143 150 143 141 141 136 131 131 133 128 119 116 117 119 117 113 113 111 112 111 109 106 102 99 97 96 95 94 93 90 87 84 80 79 81 80 76 70 64 60 58 57 56 56 57 56 53 56 53 53 61 63 67 74 76 71 64 60 67 80 75 72 73 78 81 73
137 138 139 139 145 154 147 133 136 135 131 130 131 136 140 135 129 131 136 137 137 138 140 140 135 131 135 135 127 119 115 116 118 116 116 117 114 112 110 108 106 101 98 97 96 93 93 92 89 87 84 82 79 78 76 71 67 61 58 55 52 50 49 53 55 49 46 45 46 49 51 57 67 71 69 66 61 70 78 67 63 63 73 85 70
136 136 137 138 148 153 144 138 140 135 131 129 131 138 142 136 130 132 134 131 131 137 142 141 136 135 141 135 124 120 116 113 114 115 116 117 115 112 110 108 105 101 98 95 94 91 91 90 89 86 83 82 78 75 74 70 66 61 57 54 51 48 46 51 53 45 39 35 38 40 42 48 63 67 63 62 57 64 73 65 56 60 71 89 77
134 136 137 137 148 151 144 142 142 137 131 131 137 141 143 139 135 135 137 137 134 138 142 139 135 140 143 130 122 120 116 112 110 112 116 117 117 115 113 110 106 102 99 96 93 90 89 89 89 87 84 81 76 73 72 70 66 60 54 50 47 45 47 53 50 41 37 32 34 36 33 39 55 60 55 54 54 55 67 82 83 75 62 78 90
135 137 134 139 151 150 142 140 139 138 133 134 140 138 138 143 141 141 144 139 134 140 142 140 139 140 135 124 122 120 117 114 110 113 117 119 119 117 113 109 106 102 99 98 95 91 89 87 88 88 85 80 76 72 70 67 61 56 47 43 39 37 45 54 49 38 39 36 36 41 34 38 48 51 51 48 53 53 54 62 65 65 47 53 67
137 136 136 144 153 149 143 144 143 144 143 138 139 133 134 144 143 141 139 135 139 145 140 139 141 136 129 125 124 120 117 117 114 116 120 122 120 119 115 110 106 102 100 99 96 92 88 88 90 89 85 81 77 71 67 62 54 50 40 34 30 29 41 51 48 37 40 41 39 44 43 46 45 42 44 41 46 52 51 48 42 46 43 42 44
139 139 139 144 151 152 153 160 158 158 159 151 153 152 145 138 132 132 132 137 145 141 137 140 139 134 131 128 126 122 119 119 118 121 123 122 122 119 115 110 107 102 100 100 97 95 94 93 93 94 91 83 75 69 62 52 47 43 36 32 30 29 36 45 43 35 36 39 41 41 44 44 34 29 33 29 33 41 46 48 41 42 35 31 40
141 141 142 142 149 157 164 171 163 157 158 153 156 163 159 140 134 145 140 141 143 136 138 140 138 135 132 128 126 123 121 121 121 126 125 123 122 118 112 108 104 102 102 101 101 101 103 101 98 100 95 84 74 67 56 46 40 36 36 34 29 26 28 37 33 34 31 32 44 43 52 42 22 29 35 28 28 32 34 33 29 26 21 23 28
143 145 145 142 148 159 164 166 154 144 145 143 149 160 159 145 147 159 146 140 138 133 136 139 137 133 129 125 123 122 123 123 121 123 124 123 122 117 112 107 102 103 104 102 106 109 108 103 101 104 96 84 75 66 52 42 34 29 32 28 21 18 27 42 27 32 28 29 47 45 58 39 23 51 46 35 37 31 29 24 17 6 1 12 16
144 151 147 140 147 157 156 150 142 136 137 143 153 161 157 148 153 159 143 138 140 135 135 139 138 132 127 123 122 122 121 120 117 116 116 116 118 117 111 107 104 105 107 106 110 113 112 107 104 107 99 88 74 63 48 37 29 21 19 17 12 13 30 52 28 33 31 32 48 51 64 36 19 59 51 37 43 30 25 26 19 4 355 2 4
149 155 146 139 148 158 155 148 138 131 142 159 158 158 161 156 158 161 147 144 146 138 136 140 140 136 130 127 126 122 120 120 115 115 114 110 109 112 109 106 106 105 109 109 111 112 111 108 106 109 100 88 69 52 40 30 20 14 11 9 8 14 33 52 30 38 42 38 51 58 68 43 13 55 46 32 38 27 18 17 18 8 358 358 355
151 155 145 140 148 159 157 146 133 128 152 172 158 156 166 163 163 166 156 150 151 143 140 142 141 139 134 133 130 123 124 122 117 119 120 115 108 106 104 106 105 104 107 108 111 110 108 106 108 114 100 79 56 37 28 21 12 10 8 7 13 23 33 43 35 42 50 44 58 63 59 45 33 47 37 31 34 30 18 3 2 360 355 353 345
150 153 145 138 143 153 152 145 131 126 152 161 148 161 172 168 166 165 158 154 158 150 145 144 143 141 137 138 131 124 125 120 117 119 118 115 114 105 101 108 108 104 107 107 107 104 102 103 105 109 90 57 40 24 18 13 11 10 7 11 26 32 29 37 42 44 55 51 61 62 41 30 46 43 30 31 26 31 31 2 354 353 348 343 338
149 154 145 130 132 143 150 148 126 124 155 142 136 164 170 169 172 165 159 157 160 153 147 146 145 144 140 140 132 126 124 118 114 114 113 110 108 104 102 110 108 104 104 99 95 93 91 94 95 91 67 42 31 21 18 16 15 12 13 26 38 37 29 39 47 49 59 60 64 53 33 34 42 41 25 18 15 17 22 8 355 348 342 331 328
155 160 148 132 131 143 148 145 127 126 156 144 135 165 161 164 174 169 161 154 153 151 150 146 144 145 142 140 134 129 125 118 113 111 110 104 102 104 105 104 100 98 96 94 92 89 86 87 84 75 53 34 33 22 17 24 27 27 34 44 45 42 40 47 52 56 60 63 65 43 35 40 34 35 21 6 7 6 5 3 354 347 338 321 321
162 167 156 143 142 148 147 144 134 130 144 145 141 156 156 159 164 164 159 150 146 146 148 143 141 144 141 140 136 131 129 124 114 110 106 104 109 114 110 101 97 96 96 95 93 88 85 84 75 62 46 37 42 30 20 34 36 39 48 52 53 55 52 55 57 56 59 66 63 44 43 45 33 32 29 13 360 357 357 350 343 341 330 313 312
166 170 161 149 145 148 149 143 134 135 142 142 140 144 152 153 152 154 153 146 142 142 147 144 142 144 144 142 137 137 136 126 117 114 107 107 115 117 110 102 98 100 99 92 88 87 81 72 59 51 43 39 46 45 51 59 50 48 57 62 66 68 64 63 62 57 58 64 62 52 52 48 39 33 32 28 2 357 354 345 347 347 340 337 337
167 163 161 154 149 149 148 141 135 143 144 140 143 144 148 149 148 152 148 144 144 143 145 145 145 145 144 142 140 142 134 122 119 119 115 116 121 117 108 100 100 101 97 90 84 81 72 58 46 47 47 47 56 62 64 69 70 68 72 74 73 73 72 67 63 61 58 60 64 62 59 51 44 36 31 28 7 4 4 3 6 0 358 3 6
156 154 157 156 156 151 143 138 138 144 142 145 151 151 152 151 151 152 149 147 147 147 144 145 147 145 144 143 143 140 128 123 124 123 123 127 128 126 117 111 113 106 99 98 92 79 72 62 47 51 59 64 64 65 70 73 77 78 79 80 78 77 75 71 65 60 57 56 60 65 65 57 48 39 35 31 16 13 19 22 18 8 13 19 16
149 153 154 153 155 151 139 136 138 138 140 147 146 147 152 153 154 153 152 149 147 148 146 147 148 145 146 145 141 134 127 127 128 128 128 130 130 136 132 125 124 111 102 100 92 79 77 73 62 60 62 73 74 71 71 72 80 84 83 81 80 80 76 73 68 59 56 51 50 58 65 62 57 48 41 37 30 25 26 30 29 22 26 31 24
149 151 150 152 155 151 140 138 139 138 146 152 145 144 147 148 152 153 153 150 147 148 148 150 147 145 147 143 138 133 130 128 127 128 129 132 136 137 132 126 119 107 99 93 84 79 80 76 71 65 61 75 80 77 75 71 75 84 85 82 81 81 78 74 69 63 58 47 40 45 55 59 60 57 53 49 43 38 36 39 43 41 36 33 30
147 150 149 154 156 150 143 142 140 140 151 157 146 140 141 143 147 153 152 145 144 147 147 146 143 145 147 143 140 137 134 131 131 131 132 136 138 137 132 124 114 104 95 90 85 82 82 80 76 72 67 71 73 70 73 74 72 78 85 89 84 77 78 75 66 64 62 52 35 33 42 49 53 56 57 57 56 54 52 51 51 50 43 35 33
150 153 152 153 152 150 147 143 140 141 148 153 140 133 138 141 141 147 147 142 145 146 143 142 144 148 149 145 143 141 138 135 135 135 136 138 139 138 130 118 109 103 97 95 90 82 81 81 76 71 67 68 73 65 66 77 77 76 79 88 91 82 80 81 69 64 61 58 40 27 33 40 44 49 54 58 61 62 62 61 57 53 49 41 37
151 152 151 150 148 149 148 141 139 142 145 147 140 134 139 140 134 137 140 140 144 144 143 146 149 151 150 147 143 141 139 137 138 137 138 140 140 136 124 118 112 102 99 96 88 78 78 79 71 63 60 66 79 70 65 77 78 80 77 79 89 89 85 84 77 74 69 67 56 25 25 35 41 43 49 54 57 60 61 62 58 53 50 44 41
149 151 147 148 147 146 143 138 138 142 144 145 143 139 140 141 137 139 140 139 141 144 148 148 148 149 149 146 140 136 136 137 139 140 142 142 139 133 123 122 116 105 92 87 80 72 71 73 64 52 51 62 77 72 77 85 84 87 86 80 84 85 81 88 97 98 90 72 62 36 18 24 36 39 44 48 51 55 57 58 57 54 50 45 42
150 149 142 145 146 142 139 138 138 141 145 145 143 141 140 142 142 142 141 141 144 148 149 147 146 145 145 144 139 135 135 137 139 141 143 140 138 136 129 126 118 109 80 66 64 65 73 76 66 52 45 54 74 77 89 86 75 83 89 86 87 86 75 74 97 93 90 72 48 54 36 14 20 30 36 39 44 48 50 52 53 52 50 46 42
148 146 142 145 144 140 139 138 138 139 142 141 141 142 139 140 143 142 142 144 147 148 146 144 142 142 143 142 139 137 135 137 140 139 143 143 139 137 132 126 109 100 70 40 39 64 70 72 68 57 46 49 76 81 93 91 64 56 88 95 94 100 105 104 102 82 69 80 70 59 53 25 3 12 17 22 33 41 43 45 46 48 47 46 42
144 147 147 146 143 141 140 139 140 139 137 137 138 140 138 139 141 140 143 145 145 144 141 140 140 142 142 140 140 139 136 139 143 141 145 149 144 136 127 117 97 82 64 25 13 73 59 59 57 51 46 50 75 73 88 103 100 13 55 83 86 91 108 100 102 107 74 65 82 81 61 35 9 12 4 1 13 26 34 36 37 39 41 42 41
146 151 149 146 145 144 143 141 143 141 138 137 136 137 137 137 138 140 144 143 141 140 140 140 141 143 142 142 141 140 140 141 143 144 147 154 151 139 122 103 79 59 50 17 355 23 35 54 46 36 35 32 69 89 87 97 118 113 71 85 85 91 103 105 145 111 89 70 77 92 81 43 6 24 20 2 0 8 18 25 26 28 34 36 38
149 152 148 148 149 147 147 145 144 142 140 138 136 136 137 136 137 140 142 140 139 139 140 142 143 144 144 144 142 140 143 142 143 147 150 158 150 131 119 87 60 42 30 13 347 342 7 48 38 33 38 16 20 96 98 103 144 168 163 116 95 98 108 137 147 93 67 66 77 108 114 120 68 31 30 24 5 0 2 6 12 15 24 30 34
152 152 151 152 150 149 152 148 146 144 141 140 138 139 140 139 139 140 142 142 142 141 142 144 144 145 143 143 144 142 144 145 147 150 154 160 142 117 107 80 58 39 25 7 337 329 340 27 34 38 42 358 341 43 98 138 172 176 164 120 110 157 106 93 87 90 98 61 44 91 104 124 115 51 23 28 7 360 356 358 7 7 15 24 30
154 154 155 155 151 151 153 150 149 147 144 143 142 142 143 142 143 143 144 146 145 145 146 145 145 146 142 143 146 145 147 149 151 156 159 147 131 102 82 72 58 36 29 11 16 8 344 3 20 43 33 344 349 11 40 206 193 177 165 126 117 216 101 92 97 113 131 89 46 52 52 89 115 64 22 39 5 353 353 358 7 3 3 10 21
159 157 157 157 152 151 151 150 152 150 147 146 145 146 146 145 147 147 147 150 148 146 147 146 147 148 145 148 150 150 153 154 154 159 160 147 139 116 89 80 59 36 27 32 58 40 11 8 350 11 2 324 339 340 7 281 248 199 157 124 118 127 96 113 210 166 134 103 75 345 334 322 101 68 35 93 28 348 353 3 10 3 358 359 11
161 158 159 162 157 154 152 152 155 152 149 149 150 151 151 150 151 151 152 154 151 149 151 150 152 152 149 152 154 154 157 156 157 159 156 154 152 133 125 102 60 35 37 48 49 39 28 10 344 346 328 287 216 249 106 253 255 210 4 155 147 184 135 119 275 261 186 141 124 267 310 7 74 70 29 77 69 358 357 11 14 6 6 359 3
164 162 163 166 164 159 155 155 156 156 155 155 157 157 156 155 156 157 158 157 154 154 156 157 156 154 153 157 159 159 157 156 155 157 159 159 162 153 148 132 74 39 42 41 33 33 28 7 341 323 305 300 271 235 79 287 250 187 242 231 185 187 174 172 214 251 236 175 155 148 74 29 61 71 344 346 8 345 347 24 22 3 9 1 359
166 169 169 168 168 165 159 158 158 160 162 161 161 162 160 160 160 161 160 157 159 161 162 162 161 156 157 160 161 161 157 154 156 160 167 169 173 168 159 152 93 40 35 31 30 36 32 27 349 314 301 297 295 356 31 278 243 201 227 249 197 173 178 211 213 229 253 233 167 152 146 112 106 84 338 4 355 325 340 34 27 7 7 356 2
169 173 174 170 171 170 166 163 162 164 166 166 165 165 163 162 162 162 162 161 163 167 164 163 163 159 162 165 162 164 161 162 167 170 178 176 173 167 161 159 116 33 15 21 28 47 44 43 15 352 333 296 257 78 8 315 292 256 178 250 235 174 153 253 249 241 262 283 293 111 83 223 158 144 3 29 309 263 195 64 7 13 8 341 5
172 175 176 174 174 174 172 168 167 168 169 171 171 166 163 161 159 158 157 157 161 164 160 164 168 163 166 171 169 172 172 176 179 179 185 177 172 167 162 159 136 15 356 10 11 58 68 62 49 39 348 304 284 100 24 339 332 335 248 229 249 223 171 255 256 258 276 276 309 52 49 344 70 76 19 239 268 270 207 124 329 342 17 344 6
177 178 178 178 177 176 176 173 171 171 172 174 174 167 164 161 158 157 154 153 160 166 168 171 174 172 176 177 177 180 181 185 186 187 187 177 177 170 168 170 156 212 291 296 340 57 73 83 68 50 24 332 321 344 21 18 2 354 315 303 271 246 288 288 267 299 309 302 353 45 58 329 274 187 233 209 217 309 327 44 333 278 146 22 343
180 180 179 179 178 176 176 176 174 175 175 176 175 170 168 167 164 166 166 165 169 175 179 179 178 182 186 179 178 184 187 190 190 190 188 183 185 175 178 189 178 209 249 274 281 134 163 104 83 48 44 15 338 320 317 87 19 344 299 296 195 253 295 307 293 309 304 348 359 305 150 207 258 228 214 203 169 115 355 354 312 273 120 74 335
181 180 179 178 178 176 176 178 177 177 178 178 178 176 174 174 174 175 175 177 178 179 183 186 183 185 186 178 180 185 190 195 192 191 192 190 190 183 193 207 204 214 208 221 234 220 177 111 71 50 40 16 4 327 315 12 23 344 327 314 272 291 316 319 313 321 336 39 338 297 201 171 265 269 4 321 84 98 87 344 322 329 38 58 355
180 179 180 177 177 177 177 178 179 179 179 180 182 182 180 181 183 183 182 184 186 181 182 186 184 185 186 182 187 190 193 199 197 197 197 197 198 192 200 211 215 219 206 209 217 226 185 123 47 48 44 356 24 345 327 329 313 68 15 323 319 328 332 324 323 333 342 70 325 305 310 307 290 355 15 353 352 13 85 70 336 339 14 38 1
182 180 180 177 176 177 178 179 181 181 181 182 184 187 187 186 188 189 188 187 188 185 185 187 186 188 192 193 197 199 199 203 205 207 206 205 205 203 206 214 218 218 214 214 201 202 218 197 241 242 164 321 16 347 330 322 316 352 52 329 325 327 326 326 350 355 332 333 125 282 276 290 347 4 14 11 355 347 347 23 38 321 356 23 357
185 181 180 177 176 177 178 180 183 184 184 184 186 190 191 191 192 193 191 187 186 186 185 185 187 192 197 199 203 210 209 209 208 210 213 214 213 213 215 216 215 218 217 215 209 207 211 211 218 230 256 271 248 257 281 296 321 332 335 351 305 304 315 314 356 11 325 316 346 293 297 5 13 344 7 28 344 329 325 333 89 136 2 41 22
187 183 182 180 178 178 180 182 184 187 187 187 189 192 194 195 197 196 194 192 189 189 188 187 189 193 200 203 204 212 215 215 213 211 214 216 217 220 222 222 216 215 218 217 222 225 216 211 209 214 242 259 247 245 259 259 265 284 280 263 266 268 274 288 294 153 294 310 330 327 344 8 354 319 337 29 294 295 310 325 15 34 27 46 34